Nouasseur, Morocco

3:25 PM WEST on April 24, 2017 (GMT +0100)
Mohamed V

Weather History for GMMN - February, 2014

Change the Weather History Date:

Monday, February 24, 2014

  Actual Average Record
Temperature  
Mean Temperature 48 °F -  
Max Temperature 60 °F 68 °F 73 °F (2009)
Min Temperature 37 °F 45 °F 37 °F (2014)
Degree Days  
Heating Degree Days 16    
Moisture  
Dew Point 49 °F    
Average Humidity 84    
Maximum Humidity 100    
Minimum Humidity 56    
Precipitation  
Precipitation 0.04 in - - ()
Sea Level Pressure  
Sea Level Pressure 30.19 in    
Wind  
Wind Speed 7 mph ()    
Max Wind Speed 13 mph    
Max Gust Speed -    
Visibility 5.8 miles    
Events Rain    
Averages and records for this station are not official NWS values.
T = Trace of Precipitation, MM = Missing Value Source: Averaged Metar Reports

Daily Weather History Graph

Daily Weather History Graph

Search for Another Location

Airport or City:

Trip Planner

Search our weather history database for the weather conditions in past years. The results will help you decide how hot, cold, wet, or windy it might be!

Date:

Astronomy

Feb. 24, 2014 Rise Set
Actual Time 7:04 AM WET 6:22 PM WET
Civil Twilight 6:39 AM WET 6:47 PM WET
Nautical Twilight 6:10 AM WET 7:16 PM WET
Astronomical Twilight 5:42 AM WET 7:45 PM WET
Moon 2:40 AM WET 1:18 PM WET
Length of Visible Light 12h 08m
Length of Day
11h 18m
Waning Crescent, 30% of the Moon is Illuminated
Feb 24
Waning Crescent
Mar 1
New
Mar 8
First Quarter
Mar 16
Full
Mar 24
Last Quarter

Hourly Weather History & Observations

Time (WET) Temp. Windchill Dew Point Humidity Pressure Visibility Wind Dir Wind Speed Gust Speed Precip Events Conditions
12:00 AM 53 °F - 49 °F 80% 30.14 in 6 mi SSW 9.2 mph - -   Mostly Cloudy
12:00 AM 53.6 °F - 48.2 °F 82% 30.12 in 6.2 mi SSW 9.2 mph - N/A   Mostly Cloudy
12:30 AM 51.8 °F - 48.2 °F 88% 30.12 in 6.2 mi SSW 10.4 mph - N/A   Mostly Cloudy
1:00 AM 50.0 °F - 46.4 °F 87% 30.12 in 6.2 mi SSW 8.1 mph - N/A   Mostly Cloudy
1:30 AM 51.8 °F - 48.2 °F 88% 30.12 in 6.2 mi SSW 11.5 mph - N/A   Mostly Cloudy
2:00 AM 51.8 °F - 48.2 °F 88% 30.12 in 6.2 mi SSW 10.4 mph - N/A   Mostly Cloudy
2:30 AM 50.0 °F - 48.2 °F 94% 30.12 in 6.2 mi SSW 6.9 mph - N/A   Mostly Cloudy
3:00 AM 50 °F - 47 °F 87% 30.15 in 6 mi SSW 8.1 mph - -   Mostly Cloudy
3:00 AM 50.0 °F - 48.2 °F 94% 30.12 in 6.2 mi SSW 8.1 mph - N/A   Mostly Cloudy
3:30 AM 51.8 °F - 48.2 °F 88% 30.12 in 6.2 mi West 6.9 mph - N/A Rain Light Rain
4:00 AM 51.8 °F - 50.0 °F 94% 30.12 in 6.2 mi NW 9.2 mph - N/A   Mostly Cloudy
4:30 AM 51.8 °F - 50.0 °F 94% 30.12 in 4.3 mi WNW 9.2 mph - N/A   Light Drizzle
5:00 AM 51.8 °F - 50.0 °F 94% 30.12 in 6.2 mi WNW 8.1 mph - N/A Rain Light Rain
5:30 AM 51.8 °F - 50.0 °F 94% 30.12 in 5.0 mi West 3.5 mph - N/A Rain Light Rain
6:00 AM 51 °F - 49 °F 92% 30.16 in 4 mi WNW 1.2 mph - - Rain Light Drizzle
6:00 AM 51.8 °F - 50.0 °F 94% 30.12 in 4.3 mi WNW 1.2 mph - N/A   Light Drizzle
6:30 AM 50.0 °F - 50.0 °F 100% 30.15 in 6.2 mi SSW 3.5 mph - N/A   Mostly Cloudy
7:00 AM 50.0 °F - 50.0 °F 100% 30.15 in 3.1 mi SSW 5.8 mph - N/A   Light Drizzle
7:30 AM 50.0 °F - 50.0 °F 100% 30.15 in 6.2 mi South 4.6 mph - N/A Rain Light Rain
8:00 AM 50.0 °F - 50.0 °F 100% 30.18 in 6.2 mi South 5.8 mph - N/A Rain Rain
8:30 AM 51.8 °F - 50.0 °F 94% 30.21 in 4.3 mi South 8.1 mph - N/A Rain Rain
8:48 AM 51 °F - 50 °F 95% 30.23 in 4 mi South 8.1 mph - - Rain Light Rain
9:00 AM 51.8 °F - 50.0 °F 94% 30.21 in 3.7 mi South 8.1 mph - N/A Rain Light Rain
9:30 AM 51.8 °F - 50.0 °F 94% 30.21 in 6.2 mi South 9.2 mph - N/A   Mostly Cloudy
10:00 AM 51.8 °F - 50.0 °F 94% 30.21 in 5.0 mi SSE 8.1 mph - N/A   Mostly Cloudy
10:30 AM 53.6 °F - 51.8 °F 94% 30.24 in 6.2 mi SSE 5.8 mph - N/A   Mostly Cloudy
11:00 AM 53.6 °F - 51.8 °F 94% 30.24 in 6.2 mi SSE 5.8 mph - N/A   Mostly Cloudy
11:30 AM 55.4 °F - 53.6 °F 94% 30.21 in 6.2 mi South 5.8 mph - N/A   Mostly Cloudy
12:00 PM 56 °F - 51 °F 80% 30.23 in 5 mi WSW 2.3 mph - -   Partly Cloudy
12:00 PM 55.4 °F - 51.8 °F 88% 30.21 in 5.0 mi Variable 2.3 mph - N/A   Mostly Cloudy
12:30 PM 55.4 °F - 50.0 °F 82% 30.21 in 6.2 mi WNW 3.5 mph - N/A   Mostly Cloudy
1:00 PM 59.0 °F - 50.0 °F 72% 30.18 in 6.2 mi West 3.5 mph - N/A   Mostly Cloudy
1:30 PM 59.0 °F - 50.0 °F 72% 30.18 in 6.2 mi WNW 3.5 mph - N/A   Mostly Cloudy
2:00 PM 59.0 °F - 48.2 °F 67% 30.18 in 6.2 mi NNW 5.8 mph - N/A   Scattered Clouds
2:30 PM 59.0 °F - 50.0 °F 72% 30.18 in 6.2 mi WNW 5.8 mph - N/A   Scattered Clouds
3:00 PM 60 °F - 48 °F 56% 30.19 in 6 mi NW 10.4 mph - -   Clear
3:00 PM 60.8 °F - 48.2 °F 63% 30.18 in 6.2 mi NW 10.4 mph - N/A   Scattered Clouds
3:30 PM 60.8 °F - 48.2 °F 63% 30.18 in 6.2 mi NW 11.5 mph - N/A   Scattered Clouds
4:00 PM 60.8 °F - 48.2 °F 63% 30.18 in 6.2 mi NNW 12.7 mph - N/A   Scattered Clouds
4:30 PM 60.8 °F - 48.2 °F 63% 30.18 in 6.2 mi NNW 12.7 mph - N/A   Scattered Clouds
5:00 PM 59.0 °F - 48.2 °F 67% 30.21 in 6.2 mi NNW 12.7 mph - N/A   Scattered Clouds
5:30 PM 59.0 °F - 48.2 °F 67% 30.21 in 6.2 mi NNW 12.7 mph - N/A   Scattered Clouds
6:00 PM 57 °F - 50 °F 69% 30.23 in 6 mi NNW 11.5 mph - -   Mostly Cloudy
6:00 PM 57.2 °F - 50.0 °F 77% 30.21 in 6.2 mi NNW 11.5 mph - N/A   Scattered Clouds
6:30 PM 55.4 °F - 50.0 °F 82% 30.24 in 6.2 mi NW 6.9 mph - N/A   Scattered Clouds
7:00 PM 53.6 °F - 48.2 °F 82% 30.24 in 6.2 mi NW 4.6 mph - N/A   Scattered Clouds
7:30 PM 53.6 °F - 48.2 °F 82% 30.24 in 6.2 mi NNW 3.5 mph - N/A   Scattered Clouds
8:00 PM 51.8 °F - 46.4 °F 82% 30.27 in 6.2 mi North 3.5 mph - N/A   Scattered Clouds
8:30 PM 51.8 °F - 46.4 °F 82% 30.27 in 6.2 mi North 2.3 mph - N/A   Scattered Clouds
9:00 PM 52 °F - 46 °F 75% 30.30 in 6 mi East 2.3 mph - -   Partly Cloudy
9:00 PM 51.8 °F - 46.4 °F 82% 30.27 in 6.2 mi East 2.3 mph - N/A   Scattered Clouds
9:30 PM 50.0 °F - 44.6 °F 82% 30.27 in 6.2 mi SE 5.8 mph - N/A   Scattered Clouds
10:00 PM 48.2 °F - 44.6 °F 87% 30.30 in 6.2 mi ESE 3.5 mph - N/A   Scattered Clouds
10:30 PM 48.2 °F - 44.6 °F 87% 30.27 in 6.2 mi SE 4.6 mph - N/A   Scattered Clouds
11:00 PM 46.4 °F 44.3 °F 44.6 °F 93% 30.27 in 6.2 mi SSE 4.6 mph - N/A   Scattered Clouds
11:30 PM 46.4 °F - 42.8 °F 87% 30.27 in 4.3 mi Calm Calm - N/A   Scattered Clouds